Location: ??
(35.5052°N, 139.7262°E)
Time: 11:30:05
(UTC+00:00)

FENGYUN 1C DEB - Pass Details

Date: 30 January 2022
Orbit: 707 x 828 km, 98.9° (Epoch: 23 May)

Event Time Altitude Azimuth Distance (km) Brightness Sun altitude
Rises 19:22:42 0° 124° (ESE) 3,252 ? -28.5°
Reaches altitude 10° 19:25:47 10° 104° (ESE) 2,303 ? -27.9°
Maximum altitude 19:28:57 17° 65° (ENE) 1,849 ? -27.2°
Drops below altitude 10° 19:32:03 10° 26° (NNE) 2,261 ? -26.6°
Enters shadow 19:40:49 -16° 352° (N) 5,285 ? -24.8°
